Date String (YYYY-MM-DD hh:mm:ss) UTC,Instrument flags,absolute air pressure of the measurement (hPa),sample flow rate (lpm),inlet stack bypass flow (lpm),air temperature of the measurement (°C),ambient temperature measured by the external sensor (°C),aerosol sample conditioner tube jacket temperature (°C),OPC LED temperature (°C),internal box temperature (°C),relative humidity of the measurement (%),span deviation,mass concentration of particles derived from Lorenz-Mie calculation of OPC scattering (μg/m³),mass concentration of particles derived from Lorenz-Mie calculation of OPC scattering (μg/m³),mass concentration of particles derived from Lorenz-Mie calculation of OPC scattering (μg/m³)
DateTimeUTC,F1_M11,P_M11,Q1_M11,Q2_M11,T1_M11,T2_M11,T3_M11,T4_M11,T5_M11,U1_M11,ZSPAN_M11,X2_M11,X0_M11,X1_M11
2023-07-20 16:00:00,SystemResetWarning,0837.2,4.99,000.00,030.4,026.2,000.0,038.9,031.1,33.3,0000.0,0002.19,0007.33,0001.36
2023-07-20 16:01:00,SystemResetWarning,0837.2,4.99,000.00,030.4,026.6,000.0,039.0,031.2,35.1,0000.0,0002.17,0008.40,0001.37
2023-07-20 16:02:00,SystemResetWarning,0837.2,5.02,000.00,030.4,027.0,000.0,038.9,031.3,33.5,0000.0,0002.12,0007.46,0001.37
2023-07-20 16:03:00,SystemResetWarning,0837.2,4.98,000.00,030.5,027.3,000.0,038.9,031.4,33.2,0000.0,0002.11,0007.41,0001.36
2023-07-20 16:04:00,SystemResetWarning,0837.2,5.02,000.00,030.5,027.6,000.0,038.9,031.4,32.9,0000.0,0002.09,0007.33,0001.36
2023-07-20 16:05:00,SystemResetWarning,0837.2,4.99,000.00,030.5,027.8,000.0,038.9,031.5,33.4,0000.0,0002.04,0007.33,0001.34
2023-07-20 16:06:00,SystemResetWarning,0837.3,4.99,000.00,030.5,028.0,000.0,038.9,031.5,33.1,0000.0,0002.03,0007.15,0001.35
2023-07-20 16:07:00,SystemResetWarning,0837.2,5.00,000.00,030.5,028.2,000.0,038.9,031.6,32.9,0000.0,0002.11,0007.21,0001.36
2023-07-20 16:08:00,SystemResetWarning,0837.3,5.00,000.00,030.6,028.3,000.0,038.9,031.6,34.4,0000.0,0002.13,0007.94,0001.37
2023-07-20 16:09:00,SystemResetWarning,0837.3,5.01,000.00,030.6,028.4,000.0,038.9,031.6,33.8,0000.0,0002.15,0008.34,0001.37
2023-07-20 16:10:00,SystemResetWarning,0837.4,4.97,000.00,030.6,028.5,000.0,038.9,031.7,35.3,0000.0,0002.21,0008.48,0001.37
2023-07-20 16:11:00,SystemResetWarning,0837.4,5.03,000.00,030.7,028.6,000.0,039.0,031.8,34.1,0000.0,0002.29,0008.42,0001.38
2023-07-20 16:12:00,SystemResetWarning,0837.4,4.97,000.00,030.9,028.7,000.0,039.0,031.8,33.8,0000.0,0002.30,0006.81,0001.38
2023-07-20 16:13:00,SystemResetWarning,0837.4,5.02,000.00,030.9,028.7,000.0,039.0,031.9,33.4,0000.0,0002.27,0006.60,0001.40
2023-07-20 16:14:00,SystemResetWarning,0837.4,5.00,000.00,031.0,028.8,000.0,039.0,031.9,33.3,0000.0,0002.22,0006.96,0001.40
2023-07-20 16:15:00,SystemResetWarning,0837.5,5.00,000.00,031.0,028.9,000.0,039.1,031.9,33.2,0000.0,0002.14,0006.96,0001.39
2023-07-20 16:16:00,SystemResetWarning,0837.6,4.99,000.00,031.0,028.4,000.0,039.0,031.9,33.5,0000.0,0002.15,0006.78,0001.40
2023-07-20 16:17:00,SystemResetWarning,0837.5,5.00,000.00,031.0,026.6,000.0,038.9,031.7,33.7,0000.0,0002.15,0006.63,0001.41
2023-07-20 16:18:00,SystemResetWarning,0837.5,5.00,000.00,030.9,025.6,000.0,038.8,031.5,33.0,0000.0,0002.10,0006.46,0001.41
2023-07-20 16:19:00,SystemResetWarning,0837.5,5.01,000.00,030.8,025.5,000.0,038.8,031.2,33.6,0000.0,0002.13,0005.36,0001.41
2023-07-20 16:20:00,SystemResetWarning,0837.6,5.00,000.00,030.7,025.9,000.0,038.9,031.1,34.3,0000.0,0002.15,0004.97,0001.43
2023-07-20 16:21:00,SystemResetWarning,0837.6,5.02,000.00,030.7,026.3,000.0,038.9,031.2,34.4,0000.0,0002.10,0004.90,0001.42
2023-07-20 16:22:00,SystemResetWarning,0837.6,4.97,000.00,030.7,026.7,000.0,038.9,031.3,34.3,0000.0,0002.04,0004.68,0001.41
2023-07-20 16:23:00,SystemResetWarning,0837.6,5.02,000.00,030.8,027.1,000.0,038.9,031.4,34.9,0000.0,0002.06,0004.64,0001.41
2023-07-20 16:24:00,SystemResetWarning,0837.7,4.98,000.00,030.9,027.4,000.0,038.9,031.5,33.2,0000.0,0002.13,0004.88,0001.40
2023-07-20 16:25:00,SystemResetWarning,0837.6,5.01,000.00,031.0,027.7,000.0,039.0,031.6,32.4,0000.0,0002.17,0004.37,0001.40
2023-07-20 16:26:00,SystemResetWarning,0837.7,5.01,000.00,031.0,027.9,000.0,039.0,031.6,33.0,0000.0,0002.19,0004.17,0001.42
2023-07-20 16:27:00,SystemResetWarning,0837.7,4.99,000.00,031.0,028.1,000.0,039.0,031.7,33.4,0000.0,0002.24,0004.29,0001.43
2023-07-20 16:28:00,SystemResetWarning,0837.7,5.00,000.00,031.1,028.2,000.0,039.1,031.7,33.5,0000.0,0002.26,0004.60,0001.44
2023-07-20 16:29:00,SystemResetWarning,0837.7,5.01,000.00,031.1,028.4,000.0,039.1,031.7,33.3,0000.0,0002.29,0005.16,0001.44
2023-07-20 16:30:00,SystemResetWarning,0837.7,5.01,000.00,031.1,028.5,000.0,039.1,031.8,33.8,0000.0,0002.31,0005.17,0001.45
2023-07-20 16:31:00,SystemResetWarning,0837.7,5.00,000.00,031.1,028.6,000.0,039.2,031.8,33.2,0000.0,0002.31,0004.93,0001.45
2023-07-20 16:32:00,SystemResetWarning,0837.7,4.99,000.00,031.1,028.7,000.0,039.2,031.9,33.4,0000.0,0002.32,0004.80,0001.47
2023-07-20 16:33:00,SystemResetWarning,0837.8,4.99,000.00,031.1,028.7,000.0,039.2,031.9,32.3,0000.0,0002.36,0004.85,0001.50
2023-07-20 16:34:00,SystemResetWarning,0837.8,4.99,000.00,031.1,028.8,000.0,039.2,031.9,32.0,0000.0,0002.33,0004.90,0001.51
2023-07-20 16:35:00,SystemResetWarning,0837.8,5.00,000.00,031.1,028.6,000.0,039.2,031.9,32.1,0000.0,0002.33,0005.14,0001.54
2023-07-20 16:36:00,SystemResetWarning,0837.8,4.99,000.00,031.1,027.0,000.0,039.1,031.8,32.0,0000.0,0002.35,0005.17,0001.55
2023-07-20 16:37:00,SystemResetWarning,0837.7,5.01,000.00,031.0,025.7,000.0,039.0,031.5,32.6,0000.0,0002.36,0005.22,0001.55
2023-07-20 16:38:00,SystemResetWarning,0837.7,5.01,000.00,030.9,025.5,000.0,038.9,031.3,31.8,0000.0,0002.33,0005.84,0001.54
2023-07-20 16:39:00,SystemResetWarning,0837.7,5.00,000.00,030.8,025.8,000.0,039.0,031.1,33.3,0000.0,0002.34,0005.79,0001.54
2023-07-20 16:40:00,SystemResetWarning,0837.7,5.00,000.00,030.7,026.2,000.0,039.0,031.2,33.9,0000.0,0002.36,0005.28,0001.54
2023-07-20 16:41:00,SystemResetWarning,0837.7,5.00,000.00,030.6,026.6,000.0,039.0,031.3,34.0,0000.0,0002.36,0005.34,0001.55
2023-07-20 16:42:00,SystemResetWarning,0837.8,5.00,000.00,030.6,027.0,000.0,039.0,031.4,32.4,0000.0,0002.36,0005.27,0001.57
2023-07-20 16:43:00,SystemResetWarning,0837.8,5.00,000.00,030.5,027.3,000.0,039.0,031.4,32.0,0000.0,0002.37,0005.42,0001.58
2023-07-20 16:44:00,SystemResetWarning,0837.8,5.00,000.00,030.5,027.6,000.0,039.0,031.5,33.7,0000.0,0002.39,0005.49,0001.59
2023-07-20 16:45:00,SystemResetWarning,0837.8,5.00,000.00,030.5,027.9,000.0,038.9,031.5,32.8,0000.0,0002.45,0005.48,0001.61
2023-07-20 16:46:00,SystemResetWarning,0837.8,5.00,000.00,030.5,028.1,000.0,038.9,031.5,33.0,0000.0,0002.41,0005.57,0001.60
2023-07-20 16:47:00,SystemResetWarning,0837.8,4.99,000.00,030.5,028.2,000.0,038.9,031.6,34.2,0000.0,0002.40,0005.55,0001.60
2023-07-20 16:48:00,SystemResetWarning,0837.8,5.02,000.00,030.6,028.4,000.0,039.0,031.7,35.2,0000.0,0002.46,0005.62,0001.63
2023-07-20 16:49:00,SystemResetWarning,0838.0,4.99,000.00,030.7,028.5,000.0,038.9,031.8,34.1,0000.0,0002.51,0005.08,0001.65
2023-07-20 16:50:00,SystemResetWarning,0837.9,5.01,000.00,030.8,028.6,000.0,039.0,031.9,34.9,0000.0,0002.52,0004.98,0001.67
2023-07-20 16:51:00,SystemResetWarning,0838.0,4.99,000.00,031.0,028.7,000.0,039.0,031.9,33.8,0000.0,0002.52,0004.98,0001.70
2023-07-20 16:52:00,SystemResetWarning,0838.0,5.00,000.00,031.1,028.8,000.0,039.0,032.0,32.9,0000.0,0002.53,0004.90,0001.72
2023-07-20 16:53:00,SystemResetWarning,0838.0,5.00,000.00,031.2,028.0,000.0,039.0,031.9,32.6,0000.0,0002.50,0004.82,0001.73
2023-07-20 16:54:00,SystemResetWarning,0838.0,4.98,000.00,031.3,026.4,000.0,038.9,031.7,32.6,0000.0,0002.51,0004.75,0001.73
2023-07-20 16:55:00,SystemResetWarning,0838.0,5.02,000.00,031.2,025.6,000.0,038.8,031.5,32.4,0000.0,0002.49,0004.67,0001.71
2023-07-20 16:56:00,SystemResetWarning,0838.0,5.00,000.00,031.1,025.7,000.0,038.9,031.2,32.9,0000.0,0002.46,0004.61,0001.73
2023-07-20 16:57:00,SystemResetWarning,0837.9,5.00,000.00,031.0,026.0,000.0,038.9,031.2,32.6,0000.0,0002.58,0005.11,0001.78
2023-07-20 16:58:00,SystemResetWarning,0837.9,5.01,000.00,030.9,026.5,000.0,039.0,031.3,32.7,0000.0,0002.58,0005.38,0001.79
2023-07-20 16:59:00,SystemResetWarning,0837.8,4.99,000.00,030.9,026.9,000.0,039.0,031.4,32.3,0000.0,0002.59,0005.41,0001.81
